Tracking 23752 objects as of 24-Oct-2021
HD Live streaming from Space Station
objects crossing your sky now

FREGAT DEB

Track FREGAT DEB now!
10-day predictions


NORAD ID: 45826
Int'l Code: 2011-037BL
Perigee: 582.9 km
Apogee: 4,663.7 km
Inclination: 51.4 °
Period: 141.5 minutes
Semi major axis: 8994 km
RCS: Unknown
Launch date: July 18, 2011
Source: Commonwealth of Independent States (former USSR) (CIS)
Launch site: TYURATAM MISSILE AND SPACE COMPLEX (TTMTR)

Note: This is SATELLITE DEBRIS
aabbcc
Your satellite tracking list
Your tracking list is empty




NASA's NSSDC Master Catalog

Two Line Element Set (TLE):
1 45826U 11037BL  21296.89565389  .00211617  00000-0  18886+0 0  9998
2 45826  51.4322 185.6373 2268582 355.7138   2.6817 10.17774096 49753
Source of the keplerian elements: AFSPC